Regional Weather Roundup
Issued by NWS

Home | Current Version | Previous Version | Graphics & Text | Print | Product List | Glossary On
Versions: 1 2 3 4 5 6 7 8 9 10 11 12 13 14 15 16 17 18 19 20 21 22 23 24 25 26 27 28 29 30 31 32 33 34 35 36 37 38 39 40 41 42 43 44 45 46 47 48 49 50
000
ASUS43 KMKX 251800
RWRWI

WISCONSIN REGIONAL WEATHER ROUNDUP
NATIONAL WEATHER SERVICE MILWAUKEE/SULLIVAN WI
100 PM CDT SUN SEP 25 2016

NOTE: "FAIR" INDICATES FEW OR NO CLOUDS BELOW 12,000 FEET WITH NO
SIGNIFICANT WEATHER AND/OR OBSTRUCTIONS TO VISIBILITY.

WIZ001-002-006>008-014>016-023>028-251900-
NORTHWEST WISCONSIN

CITY           SKY/WX    TMP DP  RH WIND       PRES   REMARKS
SUPERIOR ARPT  CLOUDY    69  63  82 SW15G21   29.78S
ASHLAND        CLOUDY    67  65  93 S10       29.80F
6HR MIN TEMP:  63; 6HR MAX TEMP:  67; 6HR PCP:  0.03;

HAYWARD        LGT RAIN  65  62  90 S6        29.83F
6HR MIN TEMP:  61; 6HR MAX TEMP:  65; 6HR PCP:  0.10;

SIREN          MOSUNNY   65  57  74 W15       29.85S
CUMBERLAND     CLOUDY    64  57  77 SW13      29.86S
RICE LAKE      CLOUDY    67  59  76 SW8       29.88S
CHETEK         NOT AVBL
LADYSMITH      CLOUDY    66  65  95 S9        29.89S FOG
EAU CLAIRE     CLOUDY    66  61  84 SW8       29.88S
MENOMONIE      CLOUDY    67  67  99 S7        29.88F
NEW RICHMOND   SUNNY     65  55  68 SW13G20   29.89R
OSCEOLA        MOSUNNY   67  55  66 SW14G22   29.91S
$$

WIZ003>005-009-010-017-018-251900-
NORTH CENTRAL WISCONSIN

CITY           SKY/WX    TMP DP  RH WIND       PRES   REMARKS
MANITOWISH WTR NOT AVBL
ARBOR VITAE    CLOUDY    63  62  96 S12       29.90F
WOODRUFF       CLOUDY    63  62  96 S12       29.90F
RHINELANDER    CLOUDY    64  64 100 S8        29.93F
6HR MIN TEMP:  60; 6HR MAX TEMP:  64; 6HR PCP:  0.11;

EAGLE RIVER    CLOUDY    62  62 100 S9        29.93F
LAND O LAKES   RAIN      63  62  97 SE7       29.94F
PHILLIPS       CLOUDY    64  64  99 S10G17    29.88F
TOMAHAWK       CLOUDY    63  61  95 SE6       29.92F FOG
MEDFORD        CLOUDY   N/A N/A N/A S8G16     29.91F HAZE
MERRILL        CLOUDY    64  64 100 SE3       29.93F FOG
$$

WIZ029-030-035-036-043>047-251900-
CENTRAL WISCONSIN

CITY           SKY/WX    TMP DP  RH WIND       PRES   REMARKS
WAUSAU         CLOUDY    66  64  93 S10       29.91F FOG
6HR MIN TEMP:  59; 6HR MAX TEMP:  66; 6HR PCP:  0.45;

MOSINEE        CLOUDY    66  66 100 SE7       29.93F FOG
MARSHFIELD     CLOUDY    68  65  90 S8        29.92F FOG
6HR MIN TEMP:  60; 6HR MAX TEMP:  69; 6HR PCP:  0.14;

STEVENS POINT  CLOUDY    69  67  96 S5        29.94F
WAUPACA        HVY RAIN  76  69  78 SW9       29.95S
WAUTOMA        CLOUDY    76  69  79 S7        29.94F
6HR MIN TEMP:  57; 6HR MAX TEMP:  77;

WISC RAPIDS    CLOUDY    73  69  87 SW9       29.93F
6HR MIN TEMP:  61; 6HR MAX TEMP:  73; 6HR PCP:  0.11;

CAMP DOUGLAS   LGT RAIN  73  68  83 S7        29.92F
$$

WIZ011>013-019>022-031-037>040-048>050-251900-
NORTHEAST WISCONSIN

CITY           SKY/WX    TMP DP  RH WIND       PRES   REMARKS
ANTIGO         RAIN      63  63 100 CALM      29.95F
SHAWANO        PTSUNNY   77  67  70 S9        29.92F
OCONTO         NOT AVBL
STURGEON BAY   CLOUDY    68  63  84 S16G30    29.99F
6HR MIN TEMP:  62; 6HR MAX TEMP:  68;

GREEN BAY      CLOUDY    76  67  73 SE13G25   29.94F
6HR MIN TEMP:  62; 6HR MAX TEMP:  76;

MANITOWOC      PTSUNNY   70  63  78 S20G30    30.01F
APPLETON       PTSUNNY   75  63  64 S17G23    29.93F
CLINTONVILLE   NOT AVBL
OSHKOSH        PTSUNNY   78  66  66 S14G25    29.93F HX  80
6HR MIN TEMP:  64; 6HR MAX TEMP:  79;

$$

WIZ032>034-041-042-053>061-251900-
SOUTHWEST WISCONSIN

CITY           SKY/WX    TMP DP  RH WIND       PRES   REMARKS
LA CROSSE      CLOUDY    73  68  84 S10       29.91S
6HR MIN TEMP:  68; 6HR MAX TEMP:  74; 6HR PCP: TRACE;

SPARTA         CLOUDY    70  67  92 S9        29.93S
VIROQUA        CLOUDY    71  67  89 SW8       29.95S
BOSCOBEL       CLOUDY    77  69  76 W5        29.94F
6HR MIN TEMP:  63; 6HR MAX TEMP:  77; 6HR PCP:  0.01;

PRAIRIE DU CHI CLOUDY    74  65  72 SW13G20   29.95S
PLATTEVILLE    PTSUNNY   78  71  78 SW10      29.97F HX  80
$$

WIZ056-057-062-063-064-067-068-251900-
SOUTH CENTRAL WISCONSIN

CITY           SKY/WX    TMP DP  RH WIND       PRES   REMARKS
REEDSBURG      NOT AVBL
BARABOO/DELLS  CLOUDY    74  67  78 SW10      29.95F
LONE ROCK      NOT AVBL
MINERAL POINT  CLOUDY    77  70  78 SW9       29.97F
MADISON        CLOUDY    78  70  76 S8        29.95S HX  80
6HR MIN TEMP:  64; 6HR MAX TEMP:  79; 6HR PCP: TRACE;

MIDDLETON      CLOUDY    78  72  81 S6        29.97S HX  80
WATERTOWN      SUNNY     80  69  70 S14       29.97F HX  82
MONROE         CLOUDY    79  70  73 SW12      29.97F HX  81
JANESVILLE     MOSUNNY   81  66  61 S17G23    29.96F HX  83
$$

WIZ051-052-058>065-066-070>072-251900-
SOUTHEAST WISCONSIN

CITY           SKY/WX    TMP DP  RH WIND       PRES   REMARKS
MILWAUKEE      PTSUNNY   75  64  68 SE14      30.00F
6HR MIN TEMP:  67; 6HR MAX TEMP:  75;

WAUKESHA       SUNNY     75  64  69 SE12      30.01F
MILWAUKEE/TIMM SUNNY     75  61  60 SE10      30.00F
RACINE         MOSUNNY   71  60  68 S14       30.03F
6HR MIN TEMP:  66; 6HR MAX TEMP:  72;

BURLINGTON     MOSUNNY   78  64  61 SE8       30.00F HX  80
KENOSHA        MOSUNNY   75  64  68 SE8       30.01F
6HR MIN TEMP:  65; 6HR MAX TEMP:  76;

FOND DU LAC    MOSUNNY   78  66  66 S15       29.95F HX  80
6HR MIN TEMP:  65; 6HR MAX TEMP:  80;

SHEBOYGAN      MOSUNNY   70  62  76 S16G23    30.01F
6HR MIN TEMP:  65; 6HR MAX TEMP:  71;

WEST BEND      SUNNY     73  64  73 SE7       30.00F
JUNEAU         MOSUNNY   77  67  72 SE15      29.97F
$$

LSZ147-162-251900-
LAKE SUPERIOR

STATION/POSITION TIME  TEMP    WIND        PRES    WAVE
                       AIR SEA DIR/SP/G            HT/PER
                 (UTC) (F)     (DEG/KT/KT) (MB)    (FT/S)
W MID LAKE BUOY  1650   63 61  160/ 17/ 21 1009.5F   3/ 4
DEVILS ISLAND    1700   64     160/ 12/ 17 1009.0F
SAXON HARBOR     1700   69     190/  8/ 17 1009.8F
$$

LMZ867-665-643>646-251900-
LAKE MICHIGAN

STATION/POSITION TIME  TEMP    WIND        PRES    WAVE
                       AIR SEA DIR/SP/G            HT/PER
                 (UTC) (F)     (DEG/KT/KT) (MB)    (FT/S)
CHAMBERS ISLAND  1700   66     130/  8/ 14 1015.6F
S GREEN BAY BUOY 1600   67 66  170/ 14/ 17 1015.6F
N MID LAKE BUOY  1650   65 67  160/ 19/ 21 1016.8F   4/ 5
NORTHPORT PIER   1700   65     150/ 13/ 21 1016.6F
SISTER BAY       1708   67     170/ 16/ 21   N/A
KEWAUNEE LAKESHO 1700   66     160/ 19/ 22 1016.1F
SHEBOYGAN LAKESH 1700   63     160/ 12/ 13 1016.4F
PORT WASHINGTON  1740   67     170/  5/  8 1017.3F
ATWATER BUOY     1700   62 53  160/ 12/ 16 1016.7F
MILWAUKEE LAKESH 1710   63     150/ 15/ 16   N/A
S MID LAKE BUOY  1650   69 72  130/ 19/ 21 1017.3F   4/ 5
KENOSHA   LAKESH 1700   66     170/ 12/ 15 1016.9F
$$

TC  - TEMPERATURE IN CELSIUS
VSB - VISIBILITY IN STATUTE MILES
WCI - WIND CHILL INDEX
HX  - HEAT INDEX





USA.gov is the U.S. government's official web portal to all federal, state and local government web resources and services.